Humidity-temperature Sensor

Selected Measurement Type: Air Temperature

 
Air Temperature [°C]     6 entries per hour
Showing data from 5/18/2022 (15:00:00 Z) to 5/17/2022 (00:01:00 Z)
Previous Next [ Day | 3-Days | 7-Days ]
First Last
Prev [ Day | 3-Days | 7-Days ] Next
First Last

Start Time:     :
End Time:     :     
Time (in GMT) :00 :50 :40 :30 :20 :10
Previous Next [ Day | 3-Days | 7-Days ]
First Last
Prev [ Day | 3-Days | 7-Days ] Next
First Last


123 => good data
MM => data is determined as missing
-- => data not received/configured
Back to Top Back to Top
5/18/2022 15:00 to 14:10 27.42 27.36 27.29 27.24 27.19 27.25
5/18/2022 14:00 to 13:10 27.34 27.37 27.26 27.36 27.21 27.18
5/18/2022 13:00 to 12:10 27.07 27.04 26.90 26.69 26.54 26.49
5/18/2022 12:00 to 11:10 26.50 26.91 26.94 26.96 27.08 27.13
5/18/2022 11:00 to 10:10 27.05 27.09 27.02 26.98 27.03 27.07
5/18/2022 10:00 to 9:10 26.93 27.11 27.05 27.31 26.91 26.78
5/18/2022 09:00 to 8:10 26.80 26.53 26.65 27.07 26.79 26.79
5/18/2022 08:00 to 7:10 26.76 26.74 26.79 26.95 26.84 26.76
5/18/2022 07:00 to 6:10 26.79 26.81 26.46 26.64 26.67 26.81
5/18/2022 06:00 to 5:10 26.88 27.12 27.23 27.10 27.41 27.13
5/18/2022 05:00 to 4:10 27.07 27.13 27.00 27.09 27.13 27.00
5/18/2022 04:00 to 3:10 27.02 27.03 26.89 26.83 26.80 26.91
5/18/2022 03:00 to 2:10 26.89 26.96 26.89 26.84 27.00 27.01
5/18/2022 02:00 to 1:10 26.95 26.76 26.67 26.59 26.45 26.41
5/18/2022 01:00 to 0:10 26.45 26.57 26.52 26.43 26.45 26.55
5/18/2022 00:00 to 23:10 26.43 26.32 26.55 26.73 26.55 26.58
5/17/2022 23:00 to 22:10 26.80 26.57 26.89 26.85 26.58 26.62
5/17/2022 22:00 to 21:10 26.85 26.60 26.64 26.75 26.67 26.77
5/17/2022 21:00 to 20:10 26.75 26.76 26.80 26.81 26.70 26.71
5/17/2022 20:00 to 19:10 26.80 26.76 27.00 26.89 27.00 27.00
5/17/2022 19:00 to 18:10 26.94 26.92 27.11 26.90 26.82 26.90
5/17/2022 18:00 to 17:10 26.73 26.55 26.49 26.60 26.57 26.61
5/17/2022 17:00 to 16:10 26.32 26.40 26.40 26.08 26.35 26.20
5/17/2022 16:00 to 15:10 26.20 26.25 26.21 26.28 26.30 26.19
5/17/2022 15:00 to 14:10 26.23 26.10 26.14 26.29 26.48 26.76
5/17/2022 14:00 to 13:10 26.64 26.72 26.78 26.81 26.81 26.62
5/17/2022 13:00 to 12:10 26.34 26.37 26.32 26.30 26.37 26.34
5/17/2022 12:00 to 11:10 26.38 26.51 26.33 26.35 26.41 26.25
5/17/2022 11:00 to 10:10 26.30 26.19 26.00 25.85 25.94 25.96
5/17/2022 10:00 to 9:10 25.93 25.97 25.85 25.95 25.70 25.85
5/17/2022 09:00 to 8:10 25.80 25.87 26.02 25.97 25.98 25.97
5/17/2022 08:00 to 7:10 25.98 25.93 25.94 26.13 26.21 26.10
5/17/2022 07:00 to 6:10 26.24 26.35 26.23 26.14 26.06 26.12
5/17/2022 06:00 to 5:10 26.20 26.30 26.35 26.17 26.10 26.26
5/17/2022 05:00 to 4:10 -- -- -- -- -- --
5/17/2022 04:00 to 3:10 25.98 26.05 26.21 26.16 26.10 26.12
5/17/2022 03:00 to 2:10 26.05 26.02 26.04 25.80 25.88 25.87
5/17/2022 02:00 to 1:10 25.79 25.77 25.79 25.72 25.59 25.56
5/17/2022 01:00 to 0:10 25.58 25.49 25.64 25.49 25.50 25.48